Weather History for Elsenborn, Belgium

Change the Weather History Date:

Saturday, March 30, 2013

  Actual Average Record
Temperature  
Mean Temperature 22 °F -  
Max Temperature 31 °F 46 °F 65 °F (2014)
Min Temperature 12 °F 35 °F 12 °F (2013)
Degree Days  
Heating Degree Days 44    
Moisture  
Dew Point 21 °F    
Average Humidity 81    
Maximum Humidity 93    
Minimum Humidity 56    
Precipitation  
Precipitation 0.00 in - - ()
Sea Level Pressure  
Sea Level Pressure 29.69 in    
Wind  
Wind Speed 6 mph ()    
Max Wind Speed 10 mph    
Max Gust Speed -    
Visibility 2.5 miles    
Events Fog , Snow    
Averages and records for this station are not official NWS values.
T = Trace of Precipitation, MM = Missing Value Source: Averaged Metar Reports

Daily Weather History Graph

Daily Weather History Graph

Search for Another Location

Airport:

Trip Planner

Search our weather history database for the weather conditions in past years. The results will help you decide how hot, cold, wet, or windy it might be!

Date:

Astronomy

Mar. 30, 2013 Rise Set
Actual Time 6:15 AM CET 7:04 PM CET
Civil Twilight 5:42 AM CET 7:37 PM CET
Nautical Twilight 5:03 AM CET 8:17 PM CET
Astronomical Twilight 4:21 AM CET 8:59 PM CET
Moon 11:19 PM CET (3/30) 7:35 AM CET (3/30)
Length of Visible Light 13h 54m
Length of Day
12h 48m
Waning Gibbous, 88% of the Moon is Illuminated
Mar 30
Waning Gibbous
Apr 3
Last Quarter
Apr 10
New
Apr 18
First Quarter
Apr 25
Full

Hourly Weather History & Observations

Time (CET) Temp. Windchill Dew Point Humidity Pressure Visibility Wind Dir Wind Speed Gust Speed Precip Events Conditions
12:25 AM 14.0 °F 8.2 °F 10.4 °F 86% 29.65 in 1.6 mi Variable 3.5 mph - N/A   Clear
1:00 AM 13 °F - 10 °F 82% 29.83 in 2 mi 2.2 mph - -   Mist
1:25 AM 14.0 °F 8.2 °F 10.4 °F 86% 29.65 in 1.4 mi Variable 3.5 mph - N/A   Partly Cloudy
2:02 AM 19.4 °F 12.8 °F 17.6 °F 93% 29.62 in 0.9 mi ENE 4.6 mph - N/A   Partly Cloudy
2:25 AM 19.4 °F 14.3 °F 17.6 °F 93% 29.62 in 0.8 mi Variable 3.5 mph - N/A   Mostly Cloudy
2:34 AM 21.2 °F 14.9 °F 19.4 °F 93% 29.62 in 0.6 mi ENE 4.6 mph - N/A Fog Light Freezing Fog
3:25 AM 21.2 °F - 19.4 °F 93% 29.62 in 0.7 mi Variable 2.3 mph - N/A   Partly Cloudy
4:00 AM 21 °F - 19 °F 89% 29.76 in 1 mi Calm Calm - -   Mist
4:04 AM 21.2 °F 14.9 °F 19.4 °F 93% 29.62 in 1.0 mi NE 4.6 mph - N/A   Scattered Clouds
4:16 AM 21.2 °F 16.4 °F 19.4 °F 93% 29.62 in 0.9 mi Variable 3.5 mph - N/A   Partly Cloudy
4:25 AM 21.2 °F 16.4 °F 19.4 °F 93% 29.62 in 0.9 mi Variable 3.5 mph - N/A   Partly Cloudy
5:25 AM 21.2 °F 14.9 °F 19.4 °F 93% 29.62 in 0.7 mi ENE 4.6 mph - N/A   Mostly Cloudy
5:44 AM 21.2 °F 14.9 °F 19.4 °F 93% 29.62 in 1.0 mi East 4.6 mph - N/A   Partly Cloudy
6:25 AM 21.2 °F 13.6 °F 19.4 °F 93% 29.62 in 1.2 mi NE 5.8 mph - N/A   Clear
7:00 AM 22 °F - 20 °F 87% 29.77 in 1 mi ENE 4.5 mph - -   Mist
7:25 AM 23.0 °F 17.0 °F 19.4 °F 86% 29.65 in 1.4 mi East 4.6 mph - N/A   Partly Cloudy
8:25 AM 24.8 °F 19.1 °F 23.0 °F 93% 29.65 in 1.6 mi ENE 4.6 mph - N/A   Clear
9:00 AM 24.8 °F 15.3 °F 21.2 °F 86% 29.65 in - NE 9.2 mph - N/A   Clear
9:25 AM 26.6 °F 16.8 °F 23.0 °F 86% 29.65 in 2.5 mi NE 10.4 mph - N/A   Clear
9:48 AM 26.6 °F 17.5 °F 21.2 °F 80% 29.65 in 3.1 mi NE 9.2 mph - N/A   Partly Cloudy
10:00 AM 28 °F - 22 °F 69% 29.74 in 3 mi ENE 8.9 mph - -   Scattered Clouds
10:25 AM 26.6 °F 16.8 °F 21.2 °F 80% 29.65 in 3.1 mi NNE 10.4 mph - N/A   Clear
11:25 AM 28.4 °F 19.1 °F 21.2 °F 74% 29.65 in 3.7 mi NE 10.4 mph - N/A   Scattered Clouds
11:35 AM 28.4 °F 19.7 °F 21.2 °F 74% 29.65 in - NE 9.2 mph - N/A   Mostly Cloudy
11:44 AM 28.4 °F 19.7 °F 21.2 °F 74% 29.65 in 3.1 mi ENE 9.2 mph - N/A   Mostly Cloudy
12:10 PM 28.4 °F 19.1 °F 23.0 °F 80% 29.65 in - NE 10.4 mph - N/A   Mostly Cloudy
12:16 PM 28.4 °F 19.1 °F 23.0 °F 80% 29.65 in 2.2 mi NE 10.4 mph - N/A   Mostly Cloudy
12:25 PM 28.4 °F 19.7 °F 23.0 °F 80% 29.65 in - NE 9.2 mph - N/A   Mostly Cloudy
12:28 PM 28.4 °F 20.4 °F 21.2 °F 74% 29.65 in 2.5 mi NE 8.1 mph - N/A   Mostly Cloudy
12:41 PM 28.4 °F 20.4 °F 23.0 °F 80% 29.65 in 2.2 mi NE 8.1 mph - N/A   Scattered Clouds
1:00 PM 28 °F - 22 °F 72% 29.76 in 2 mi NE 8.9 mph - -   Mist
1:18 PM 30.2 °F 21.9 °F 23.0 °F 75% 29.65 in - NE 9.2 mph - N/A Snow Light Snow
1:24 PM 28.4 °F 19.7 °F 23.0 °F 80% 29.65 in - NE 9.2 mph - N/A Snow Light Snow
1:25 PM 30.2 °F 21.9 °F 23.0 °F 75% 29.65 in - NE 9.2 mph - N/A Snow Light Snow
1:39 PM 30.2 °F 21.9 °F 23.0 °F 75% 29.68 in 3.1 mi ENE 9.2 mph - N/A Snow Light Snow Showers
1:58 PM 30.2 °F 21.9 °F 21.2 °F 69% 29.68 in 5.0 mi ENE 9.2 mph - N/A   Mostly Cloudy
2:10 PM 30.2 °F 21.9 °F 21.2 °F 69% 29.68 in 4.3 mi ENE 9.2 mph - N/A   Mostly Cloudy
2:25 PM 30.2 °F 22.6 °F 23.0 °F 75% 29.68 in 3.7 mi NE 8.1 mph - N/A   Mostly Cloudy
2:47 PM 28.4 °F 19.1 °F 23.0 °F 80% 29.68 in - NNE 10.4 mph - N/A   Mostly Cloudy
3:00 PM 30.2 °F 22.6 °F 23.0 °F 75% 29.68 in 3.1 mi NNE 8.1 mph - N/A   Mostly Cloudy
3:25 PM 30.2 °F 21.9 °F 23.0 °F 75% 29.68 in 3.7 mi NNE 9.2 mph - N/A   Mostly Cloudy
4:00 PM 31 °F - 21 °F 56% 29.76 in 4 mi NNE 8.9 mph - -   Clear
4:17 PM 32.0 °F 25.6 °F 21.2 °F 64% 29.68 in 5.0 mi North 6.9 mph - N/A   Mostly Cloudy
4:25 PM 30.2 °F 21.9 °F 21.2 °F 69% 29.68 in 5.0 mi North 9.2 mph - N/A   Mostly Cloudy
4:31 PM 30.2 °F 21.3 °F 21.2 °F 69% 29.68 in 4.3 mi NE 10.4 mph - N/A   Mostly Cloudy
4:42 PM 30.2 °F 21.9 °F 21.2 °F 69% 29.68 in 5.0 mi NNE 9.2 mph - N/A   Mostly Cloudy
5:07 PM 30.2 °F 21.9 °F 21.2 °F 69% 29.68 in 4.3 mi NNE 9.2 mph - N/A   Mostly Cloudy
5:25 PM 30.2 °F 23.4 °F 21.2 °F 69% 29.68 in 3.7 mi NNE 6.9 mph - N/A   Mostly Cloudy
5:28 PM 30.2 °F 24.3 °F 21.2 °F 69% 29.68 in 4.3 mi NNE 5.8 mph - N/A Snow Light Snow Showers
5:34 PM 30.2 °F 24.3 °F 21.2 °F 69% 29.68 in 5.0 mi NNE 5.8 mph - N/A Snow Light Snow Showers
5:40 PM 30.2 °F 21.3 °F 21.2 °F 69% 29.68 in 3.7 mi NNE 10.4 mph - N/A Snow Light Snow Showers
5:49 PM 28.4 °F 19.1 °F 23.0 °F 80% 29.68 in - NNE 10.4 mph - N/A Snow Light Snow Showers
5:55 PM 28.4 °F 20.4 °F 21.2 °F 74% 29.68 in 3.1 mi North 8.1 mph - N/A Snow Light Snow Showers
6:17 PM 28.4 °F 21.2 °F 21.2 °F 74% 29.68 in 3.7 mi North 6.9 mph - N/A Snow Light Snow Showers
6:23 PM 28.4 °F 20.4 °F 23.0 °F 80% 29.68 in - North 8.1 mph - N/A Snow Light Snow Showers
6:25 PM 28.4 °F 19.7 °F 23.0 °F 80% 29.68 in 1.3 mi North 9.2 mph - N/A Snow Light Snow Showers
6:36 PM 28.4 °F 20.4 °F 24.8 °F 86% 29.68 in 0.9 mi North 8.1 mph - N/A Snow Light Snow Showers
6:49 PM 28.4 °F 21.2 °F 24.8 °F 86% 29.71 in 1.0 mi North 6.9 mph - N/A Snow Light Snow Showers
7:00 PM 28 °F - 25 °F 83% 29.81 in 1 mi NNE 4.5 mph - - Snow Light Snow Showers
7:22 PM 26.6 °F 19.1 °F 23.0 °F 86% 29.71 in - NNE 6.9 mph - N/A Snow Light Snow
7:28 PM 26.6 °F 19.1 °F 23.0 °F 86% 29.71 in - NNE 6.9 mph - N/A Snow Light Snow Grains
7:34 PM 26.6 °F 20.0 °F 21.2 °F 80% 29.71 in - NNE 5.8 mph - N/A Snow Light Snow
7:55 PM 24.8 °F 19.1 °F 21.2 °F 86% 29.71 in - NNE 4.6 mph - N/A   Clear
8:25 PM 26.6 °F 20.0 °F 23.0 °F 86% 29.71 in - NNE 5.8 mph - N/A   Clear
8:28 PM 26.6 °F 21.2 °F 23.0 °F 86% 29.74 in 1.7 mi North 4.6 mph - N/A Snow Light Snow
9:10 PM 26.6 °F 21.2 °F 23.0 °F 86% 29.74 in - North 4.6 mph - N/A Snow Light Snow
9:25 PM 26.6 °F 22.6 °F 23.0 °F 86% 29.74 in - Variable 3.5 mph - N/A Snow Light Snow Showers
9:52 PM 26.6 °F 21.2 °F 23.0 °F 86% 29.74 in - North 4.6 mph - N/A Snow Light Snow Showers
10:00 PM 26 °F - 23 °F 84% 29.85 in 2 mi North 4.5 mph - - Snow Light Snow Showers
10:22 PM 26.6 °F 21.2 °F 23.0 °F 86% 29.74 in - North 4.6 mph - N/A Snow Light Snow
10:28 PM 26.6 °F 20.0 °F 23.0 °F 86% 29.74 in - NNE 5.8 mph - N/A Snow Light Snow Grains
10:34 PM 26.6 °F 20.0 °F 24.8 °F 93% 29.74 in 2.2 mi NNE 5.8 mph - N/A Snow Light Snow Grains
10:40 PM 26.6 °F 18.2 °F 24.8 °F 93% 29.74 in - NNE 8.1 mph - N/A Snow Light Snow
11:25 PM 26.6 °F 18.2 °F 23.0 °F 86% 29.74 in 2.2 mi NNE 8.1 mph - N/A Snow Light Snow
11:59 PM 26.6 °F 19.1 °F 23.0 °F 86% 29.74 in - NNE 6.9 mph - N/A Snow Light Snow